CW2157 Weather Reports


time (UTC)temp
C
wind
direction
speed
KPH
gust
KPH
rain 1hr
cm
rain 24hr
cm
rain mn
cm
humidity
%
barometer
mb
20260904074206 23 265 1.6 3.2 0.00 0.81 0.81 94 1011.6
20260904073706 23 269 3.2 4.8 0.00 0.81 0.81 94 1011.6
20260904072706 23 212 4.8 8.0 0.00 0.81 0.81 94 1011.6
20260904072206 23 200 4.8 8.0 0.03 0.81 0.81 94 1011.7
20260904071705 23 248 3.2 9.7 0.03 0.81 0.81 94 1011.8
20260904071206 23 242 4.8 9.7 0.03 0.81 0.81 94 1011.8
20260904070706 23 230 8.0 11.3 0.03 0.81 0.81 93 1011.7
20260904070206 23 241 4.8 12.9 0.03 0.81 0.81 93 1011.8
20260904065705 23 234 9.7 11.3 0.03 0.81 0.81 93 1011.9
20260904063705 23 215 12.9 16.1 0.10 0.81 0.81 93 1011.9
20260904063205 23 226 9.7 16.1 0.10 0.81 0.81 93 1011.7
20260904062205 23 205 11.3 19.3 0.10 0.79 0.79 93 1011.7
20260904060706 23 186 9.7 16.1 0.15 0.79 0.79 92 1011.4
20260904060206 23 189 4.8 11.3 0.18 0.79 0.79 92 1011.0
20260904055705 23 190 8.0 11.3 0.23 0.79 0.79 92 1010.9
20260904055205 23 170 8.0 9.7 0.28 0.76 0.76 92 1011.3
20260904054705 23 193 3.2 8.0 0.33 0.74 0.74 92 1011.5
20260904054205 23 186 8.0 14.5 0.48 0.71 0.71 92 1011.5
20260904053706 23 130 8.0 14.5 0.71 0.71 0.71 92 1011.3
20260904053205 23 121 8.0 12.9 0.71 0.71 0.71 92 1011.7
20260904052705 23 111 8.0 11.3 0.71 0.71 0.71 93 1012.0
20260904052205 23 126 8.0 9.7 0.69 0.69 0.69 92 1012.4
20260904051706 23 175 1.6 4.8 0.66 0.66 0.66 90 1012.9
20260904051206 23 266 0.0 1.6 0.66 0.66 0.66 90 1013.5
20260904050705 23 298 4.8 9.7 0.64 0.64 0.64 90 1013.8
20260904050205 23 288 8.0 19.3 0.61 0.61 0.61 90 1013.9
20260904045705 23 241 4.8 19.3 0.56 0.56 0.56 89 1014.1
20260904045205 23 227 14.5 32.2 0.48 0.48 0.48 88 1014.2
20260904044705 24 230 19.3 41.8 0.41 0.41 0.41 87 1014.4
20260904044206 25 207 20.9 37.0 0.23 0.23 0.23 85 1014.3
20260904043706 26 229 25.7 56.3 0.00 0.00 0.00 83 1014.0
20260904043206 26 254 9.7 32.2 0.00 0.00 0.00 92 1013.6
20260904042706 26 259 12.9 24.1 0.00 0.00 0.00 92 1012.4
20260904042205 26 234 16.1 24.1 0.00 0.00 0.00 92 1011.8
20260904041705 26 229 11.3 16.1 0.00 0.00 0.00 92 1011.7
20260904041205 26 237 9.7 16.1 0.00 0.00 0.00 92 1011.3
20260904040705 26 226 9.7 12.9 0.00 0.00 0.00 92 1011.2
20260904040205 26 199 3.2 4.8 0.00 0.00 0.00 93 1010.6
20260904035705 26 152 1.6 4.8 0.00 0.00 0.00 92 1010.4
20260904035205 26 216 1.6 4.8 0.00 0.00 0.00 91 1010.5
20260904034706 26 216 3.2 4.8 0.00 0.00 0.00 91 1010.9
20260904033705 26 216 1.6 3.2 0.00 0.00 0.00 91 1011.3
20260904033207 26 216 4.8 4.8 0.00 0.00 0.00 91 1011.4
20260904032705 26 216 3.2 4.8 0.00 0.00 0.00 91 1011.5
20260904032205 26 206 3.2 8.0 0.00 0.00 0.00 91 1011.5
20260904031705 26 218 4.8 8.0 0.00 0.00 0.00 91 1011.6
20260904031205 26 205 3.2 4.8 0.00 0.00 0.00 91 1011.6
20260904030706 26 169 1.6 4.8 0.00 0.00 0.00 91 1011.6
20260904030205 26 182 3.2 8.0 0.00 0.00 0.00 91 1011.7
20260904025705 26 206 4.8 9.7 0.00 0.00 0.00 91 1011.7
20260904024705 26 209 6.4 9.7 0.00 0.00 0.00 91 1011.8
20260904024205 27 216 4.8 9.7 0.00 0.00 0.00 91 1011.9
20260904023705 27 212 9.7 12.9 0.00 0.00 0.00 91 1011.9
20260904023205 27 213 8.0 11.3 0.00 0.00 0.00 91 1011.9
20260904022205 27 210 9.7 11.3 0.00 0.00 0.00 91 1012.0
20260904021205 27 219 9.7 12.9 0.00 0.00 0.00 90 1012.1
20260904020705 27 209 8.0 11.3 0.00 0.00 0.00 90 1012.0
20260904020205 27 207 6.4 8.0 0.00 0.00 0.00 91 1011.9
20260904015705 27 192 4.8 11.3 0.00 0.00 0.00 91 1011.7
20260904015205 27 189 8.0 11.3 0.00 0.00 0.00 91 1011.6
20260904014205 27 196 4.8 8.0 0.00 0.00 0.00 91 1011.7
20260904013705 27 176 3.2 4.8 0.00 0.00 0.00 91 1011.9
20260904013205 26 183 3.2 4.8 0.00 0.00 0.00 90 1011.9
20260904012705 26 157 3.2 4.8 0.00 0.00 0.00 89 1012.0
20260904012205 26 175 4.8 8.0 0.00 0.00 0.00 89 1012.1
20260904011705 26 196 8.0 11.3 0.00 0.00 0.00 89 1012.2
20260904011205 26 206 8.0 12.9 0.00 0.00 0.00 89 1012.3
20260904010705 27 203 9.7 14.5 0.00 0.00 0.00 89 1012.4
20260904010205 27 204 8.0 11.3 0.00 0.00 0.00 89 1012.4
20260904005706 27 205 8.0 9.7 0.00 0.00 0.00 88 1012.5
20260904005205 27 200 6.4 11.3 0.00 0.00 0.00 88 1012.6
20260904004705 27 194 8.0 11.3 0.00 0.00 0.00 88 1012.6
20260904003205 27 224 11.3 12.9 0.00 0.00 0.00 88 1012.6
20260904002705 27 224 11.3 12.9 0.00 0.00 0.00 88 1012.5
20260904002205 27 231 11.3 14.5 0.00 0.00 0.00 87 1012.5
20260904001705 27 225 11.3 14.5 0.00 0.00 0.00 87 1012.4
20260904001205 27 226 11.3 14.5 0.00 0.00 0.00 87 1012.2
20260904000705 27 231 11.3 14.5 0.00 0.00 0.00 87 1012.2
20260904000206 27 224 12.9 14.5 0.00 0.00 0.00 87 1012.0
20260903235706 27 220 11.3 14.5 0.00 0.00 0.00 86 1011.9
20260903235205 27 219 11.3 14.5 0.00 0.00 0.00 86 1011.9
20260903234205 27 207 9.7 12.9 0.00 0.00 0.00 85 1011.8
20260903233705 28 205 11.3 14.5 0.00 0.00 0.00 84 1011.7
20260903233205 28 192 8.0 12.9 0.00 0.00 0.00 84 1011.8
20260903232705 28 213 11.3 14.5 0.00 0.00 0.00 84 1011.8
20260903232205 28 209 9.7 11.3 0.00 0.00 0.00 83 1011.8
20260903231705 28 217 9.7 12.9 0.00 0.00 0.00 83 1011.9
20260903230205 28 203 9.7 12.9 0.00 0.00 0.00 81 1011.8
20260903225705 28 210 11.3 14.5 0.00 0.00 0.00 81 1011.8
20260903225206 29 212 12.9 14.5 0.00 0.00 0.00 81 1011.8
20260903224704 29 218 11.3 19.3 0.00 0.00 0.00 81 1011.8
20260903224205 29 208 11.3 14.5 0.00 0.00 0.00 80 1011.8
20260903223705 29 206 11.3 12.9 0.00 0.00 0.00 80 1011.7
20260903223205 29 217 9.7 16.1 0.00 0.00 0.00 80 1011.7
20260903222705 29 207 9.7 14.5 0.00 0.00 0.00 80 1011.6
20260903221705 30 220 11.3 14.5 0.00 0.00 0.00 79 1011.7
20260903221205 30 209 9.7 14.5 0.00 0.00 0.00 79 1011.6
20260903220206 30 212 11.3 16.1 0.00 0.00 0.00 79 1011.7
20260903215705 30 202 11.3 14.5 0.00 0.00 0.00 78 1011.6
20260903214705 30 203 12.9 19.3 0.00 0.00 0.00 76 1011.7
20260903214205 30 203 12.9 19.3 0.00 0.00 0.00 76 1011.7
20260903213705 30 211 9.7 16.1 0.00 0.00 0.00 74 1011.7
20260903213205 31 204 14.5 19.3 0.00 0.00 0.00 75 1011.8
20260903212705 31 210 14.5 20.9 0.00 0.00 0.00 75 1011.9
20260903212205 31 193 11.3 16.1 0.00 0.00 0.00 74 1011.9
20260903211706 31 208 9.7 12.9 0.00 0.00 0.00 73 1012.0
20260903211205 31 196 11.3 16.1 0.00 0.00 0.00 73 1012.0
20260903210705 31 189 9.7 14.5 0.00 0.00 0.00 73 1012.0
20260903210205 32 208 9.7 12.9 0.00 0.00 0.00 73 1012.1
20260903205705 32 194 8.0 16.1 0.00 0.00 0.00 73 1012.0
20260903204705 32 183 14.5 19.3 0.00 0.00 0.00 73 1012.0
20260903204205 32 198 12.9 20.9 0.00 0.00 0.00 74 1012.0
20260903203705 32 175 9.7 16.1 0.00 0.00 0.00 73 1012.0
20260903203206 32 191 9.7 14.5 0.00 0.00 0.00 73 1012.1
20260903202705 32 197 11.3 14.5 0.00 0.00 0.00 73 1012.2
20260903202205 32 223 11.3 14.5 0.00 0.00 0.00 72 1012.3
20260903201705 32 216 14.5 19.3 0.00 0.00 0.00 72 1012.3
20260903201205 32 216 12.9 19.3 0.00 0.00 0.00 72 1012.5
20260903200705 31 228 11.3 14.5 0.00 0.00 0.00 75 1012.6
20260903200205 31 217 9.7 12.9 0.00 0.00 0.00 76 1012.8
20260903195704 31 224 9.7 12.9 0.00 0.00 0.00 73 1012.9
20260903195205 31 224 9.7 12.9 0.00 0.00 0.00 73 1012.9
20260903194705 32 235 11.3 19.3 0.00 0.00 0.00 72 1012.9
20260903193705 32 217 14.5 19.3 0.00 0.00 0.00 75 1012.9
20260903193205 32 207 16.1 20.9 0.00 0.00 0.00 76 1012.8
20260903192705 32 198 11.3 20.9 0.00 0.00 0.00 74 1012.9
20260903192205 32 217 14.5 19.3 0.00 0.00 0.00 78 1013.0
20260903191705 31 222 16.1 20.9 0.00 0.00 0.00 74 1013.1
20260903191205 31 209 11.3 16.1 0.00 0.00 0.00 73 1013.1
20260903190705 31 231 8.0 11.3 0.00 0.00 0.00 74 1013.2
20260903190205 31 225 11.3 12.9 0.00 0.03 0.00 75 1013.2
20260903185205 31 189 9.7 19.3 0.00 0.03 0.00 79 1013.1
20260903184705 31 194 14.5 16.1 0.00 0.03 0.00 77 1013.1
20260903184205 30 212 12.9 16.1 0.00 0.03 0.00 78 1013.1
20260903183705 30 229 11.3 19.3 0.00 0.03 0.00 78 1013.2
20260903183205 30 212 11.3 19.3 0.00 0.03 0.00 78 1013.4
20260903182705 30 231 11.3 16.1 0.00 0.03 0.00 78 1013.3
20260903182205 30 230 9.7 12.9 0.00 0.03 0.00 79 1013.5
20260903181705 30 236 12.9 19.3 0.00 0.03 0.00 78 1013.6
20260903181205 29 224 11.3 22.5 0.00 0.05 0.00 77 1013.6
20260903180705 29 229 9.7 16.1 0.00 0.08 0.00 79 1013.6
20260903180205 29 237 12.9 19.3 0.00 0.18 0.00 80 1013.7
20260903175705 29 239 14.5 19.3 0.00 0.25 0.00 83 1013.6
20260903174705 28 230 12.9 19.3 0.00 0.25 0.00 83 1013.7
20260903173705 28 229 9.7 20.9 0.00 0.25 0.00 81 1013.9
20260903173205 28 244 8.0 14.5 0.00 0.25 0.00 81 1014.2
20260903172705 28 273 8.0 14.5 0.00 0.25 0.00 83 1014.5
20260903172205 28 241 9.7 14.5 0.00 0.25 0.00 84 1014.3
20260903171705 28 231 12.9 19.3 0.00 0.25 0.00 85 1014.1
20260903171205 28 205 14.5 16.1 0.00 0.25 0.00 84 1014.1
20260903170704 28 220 9.7 14.5 0.00 0.25 0.00 84 1014.3
20260903170205 28 234 9.7 14.5 0.00 0.25 0.00 85 1014.6
20260903165705 28 212 11.3 16.1 0.00 0.25 0.00 84 1014.6
20260903165205 28 210 8.0 14.5 0.00 0.25 0.00 83 1014.7
20260903164705 28 239 4.8 8.0 0.00 0.25 0.00 84 1015.0
20260903164205 28 240 4.8 11.3 0.00 0.25 0.00 82 1015.6
20260903163705 28 248 3.2 14.5 0.00 0.25 0.00 82 1015.8
20260903163206 28 251 4.8 14.5 0.00 0.25 0.00 82 1015.8
20260903162705 28 271 4.8 11.3 0.00 0.25 0.00 82 1015.8
20260903162205 28 237 12.9 20.9 0.00 0.25 0.00 82 1015.5
20260903161705 28 220 19.3 22.5 0.00 0.25 0.00 82 1015.4
20260903161205 28 223 16.1 22.5 0.00 0.25 0.00 81 1015.6
20260903160705 28 232 17.7 32.2 0.00 0.25 0.00 82 1015.6
20260903160204 28 222 20.9 27.4 0.00 0.25 0.00 81 1015.5
20260903155205 29 217 20.9 27.4 0.00 0.25 0.00 83 1015.3
20260903154705 29 223 17.7 25.7 0.00 0.25 0.00 80 1015.3
20260903154205 29 223 19.3 24.1 0.00 0.25 0.00 82 1015.3
20260903153705 29 221 20.9 24.1 0.00 0.25 0.00 80 1015.4
20260903153205 29 212 20.9 27.4 0.00 0.25 0.00 79 1015.3
20260903152705 29 216 20.9 27.4 0.00 0.25 0.00 83 1015.1
20260903152205 28 227 20.9 27.4 0.00 0.25 0.00 83 1015.2
20260903151705 28 190 16.1 24.1 0.00 0.25 0.00 85 1015.1
20260903151205 28 208 14.5 19.3 0.00 0.25 0.00 85 1015.0
20260903150705 27 207 14.5 19.3 0.00 0.25 0.00 86 1015.1
20260903150204 27 202 11.3 19.3 0.00 0.25 0.00 85 1015.0
20260903145705 27 203 14.5 19.3 0.00 0.25 0.00 85 1015.1
20260903145205 27 208 14.5 19.3 0.00 0.25 0.00 86 1015.1
20260903144705 27 195 9.7 19.3 0.00 0.25 0.00 87 1015.0
20260903144204 27 198 9.7 19.3 0.00 0.25 0.00 86 1015.0
20260903143705 27 201 14.5 16.1 0.00 0.25 0.00 86 1015.0
20260903142705 27 204 9.7 16.1 0.00 0.25 0.00 86 1014.7
20260903142205 27 209 11.3 19.3 0.00 0.25 0.00 84 1014.5
20260903141705 27 176 14.5 24.1 0.00 0.25 0.00 84 1014.2
20260903141205 27 164 16.1 22.5 0.00 0.25 0.00 85 1014.4
20260903140205 26 178 14.5 22.5 0.00 0.25 0.00 88 1014.4
20260903135705 26 165 6.4 14.5 0.00 0.25 0.00 90 1015.0
20260903135205 26 182 9.7 12.9 0.00 0.25 0.00 91 1015.1
20260903134705 25 155 8.0 12.9 0.00 0.25 0.00 93 1015.0
20260903133705 25 156 6.4 14.5 0.00 0.25 0.00 93 1015.2
20260903132206 25 173 9.7 19.3 0.00 0.25 0.00 93 1015.3
20260903131705 24 165 8.0 12.9 0.00 0.25 0.00 93 1015.6
20260903131205 24 173 8.0 12.9 0.00 0.25 0.00 93 1015.6
20260903130705 24 174 4.8 8.0 0.00 0.25 0.00 93 1015.9
20260903130205 24 145 1.6 4.8 0.00 0.25 0.00 93 1016.0
20260903125705 24 119 3.2 4.8 0.00 0.25 0.00 93 1016.1
20260903124705 23 142 3.2 4.8 0.00 0.25 0.00 93 1016.2
20260903124205 23 61 1.6 4.8 0.00 0.25 0.00 93 1016.4
20260903123705 23 57 1.6 4.8 0.00 0.25 0.00 93 1016.6
20260903122705 23 36 1.6 4.8 0.00 0.25 0.00 93 1016.5
20260903122205 23 69 3.2 4.8 0.00 0.25 0.00 93 1016.4
20260903121704 23 56 3.2 4.8 0.00 0.25 0.00 93 1016.2
20260903121204 23 85 3.2 4.8 0.00 0.25 0.00 93 1016.2
20260903120704 23 89 4.8 9.7 0.00 0.25 0.00 93 1016.3
20260903115705 23 99 3.2 4.8 0.00 0.25 0.00 93 1016.3
20260903115205 23 29 4.8 11.3 0.00 0.25 0.00 93 1016.5
20260903114704 23 58 9.7 14.5 0.00 0.25 0.00 93 1016.4
20260903114204 23 58 8.0 12.9 0.00 0.25 0.00 93 1016.3
20260903113705 23 45 9.7 12.9 0.00 0.25 0.00 93 1016.5
20260903113205 23 63 6.4 11.3 0.00 0.25 0.00 93 1016.2
20260903112705 23 64 6.4 11.3 0.00 0.25 0.00 93 1016.3
20260903111205 23 57 8.0 12.9 0.00 0.25 0.00 93 1016.0
20260903110704 23 27 6.4 9.7 0.00 0.25 0.00 93 1015.9
20260903110205 23 356 4.8 11.3 0.00 0.25 0.00 93 1015.4
20260903105705 23 88 3.2 4.8 0.00 0.25 0.00 93 1015.0
20260903103705 23 153 4.8 11.3 0.00 0.25 0.00 93 1014.7
20260903103205 23 145 6.4 11.3 0.00 0.25 0.00 93 1014.7
20260903102705 23 149 4.8 11.3 0.00 0.25 0.00 93 1014.7
20260903102205 23 153 3.2 8.0 0.00 0.25 0.00 93 1014.8
20260903101705 23 144 3.2 4.8 0.00 0.25 0.00 93 1014.9
20260903101204 23 90 3.2 4.8 0.00 0.25 0.00 93 1014.9
20260903100705 23 99 4.8 12.9 0.00 0.25 0.00 94 1015.0
20260903095205 23 102 6.4 11.3 0.00 0.25 0.00 93 1015.1
20260903094704 23 78 4.8 8.0 0.00 0.25 0.00 93 1015.2
20260903094204 23 70 4.8 8.0 0.00 0.25 0.00 93 1015.2
20260903093704 23 76 4.8 8.0 0.00 0.25 0.00 93 1015.3
20260903093205 23 86 3.2 4.8 0.00 0.25 0.00 93 1015.2
20260903092205 23 65 4.8 8.0 0.00 0.25 0.00 93 1015.1
20260903091705 23 71 6.4 8.0 0.00 0.25 0.00 93 1015.2
20260903091204 23 73 4.8 8.0 0.00 0.25 0.00 93 1015.2
20260903090705 23 73 4.8 4.8 0.00 0.25 0.00 93 1015.1
20260903085705 23 96 6.4 9.7 0.00 0.25 0.00 93 1015.0
20260903084705 23 67 6.4 9.7 0.00 0.25 0.00 93 1015.0
20260903084205 24 63 4.8 9.7 0.00 0.25 0.00 94 1015.0
20260903083704 24 88 4.8 8.0 0.00 0.25 0.00 94 1015.0
20260903083204 24 113 3.2 9.7 0.00 0.25 0.00 94 1015.0
20260903082704 24 117 4.8 9.7 0.00 0.25 0.00 94 1015.1
20260903082204 23 93 3.2 8.0 0.00 0.25 0.00 93 1015.3
20260903081704 23 106 3.2 4.8 0.00 0.25 0.00 93 1015.3
20260903081205 23 93 4.8 8.0 0.00 0.25 0.00 93 1015.3
20260903080705 23 43 4.8 8.0 0.00 0.25 0.00 93 1015.3
20260903075705 24 75 4.8 4.8 0.00 0.25 0.00 94 1015.1
20260903075204 24 122 1.6 4.8 0.00 0.25 0.00 94 1015.1
20260903074704 24 109 1.6 4.8 0.00 0.25 0.00 94 1015.1